Tracking 18980 objects as of 22-Feb-2018
HD Live streaming from Space Station
objects crossing your sky now

FENGYUN 1C DEB

Track FENGYUN 1C DEB now!
10-day predictions


NORAD ID: 36670
Int'l Code: 1999-025DYQ
Perigee: 774.9 km
Apogee: 840.2 km
Inclination: 98.8 °
Period: 100.9 minutes
Semi major axis: 7178 km
RCS: 0.014 m2 (small)
Launch date: May 10, 1999
Source: People's Republic of China (PRC)
Launch site: Taiyaun Space Center, China (TSC)

Note: This is SATELLITE DEBRIS
aabbcc
Your satellite tracking list
Your tracking list is empty




NASA's NSSDC Master Catalog

Two Line Element Set (TLE):
1 36670U 99025DYQ 18048.93305855  .00000861  00000-0  36548-3 0  9990
2 36670  98.8356  94.1896 0045477 149.9960 210.3840 14.27418231475552
Source of the keplerian elements: AFSPC